FENGYUN 1C DEB, 30143

Orbit data source: Space-Track

FENGYUN 1C DEB, 30143 is space debris in SSO originally from a launch on Mon, 10 May 1999 UTC launched from the Taiyaun Space Center, China (TSC). Fengyun 1C debris stems from the Chinese weather satellite Fengyun-1C, which was intentionally destroyed by a Chinese anti-satellite missile in 2007. This event dramatically increased the amount of space debris, with thousands of trackable fragments posing hazards to satellites and human spaceflight. The Fengyun 1C debris cloud has become a focal point in discussions about space sustainability and the need for international regulations to prevent the creation of new debris.

Loading next visibility...
Identifier
30143, 1999-025SY
Orbit
SSO
Country
Flag of CNCN / PRC
Related business
Manufacturer
Unknown
Mission
Spacecraft
Bus & Motor
Unknown
Mass
Unknown
Launch date (UTC)
1999-05-10 (27 years ago)
Launch vehicle
Unknown
Launch site
Taiyaun Space Center, China (TSC)
Object type
Payload
Rocket body
Debris
Shape & HBR
Unknown shape, 0.1 m
Radar Cross Section
Small (<0.1 m²)

Expand to show TLE details & history
Last TLE update: 14 hours ago

TLE from 14 hours ago
0 FENGYUN 1C DEB
1 30143U 99025SY  26255.00566104  .00000889  00000-0  56975-3 0  9998
2 30143  98.7477  72.5659 0100678 245.4196 245.2988 14.03420830   397
Epoch: 2026-09-12T00:08Z
TLE epoch observation values (Epoch: 2026-09-12T00:08:09.113Z)
Latitude
49.62562°
Longitude
-90.12209°
Altitude
920.956 km
Speed
7.38 km/s
True Right ascension
17h 31m 44s
True Declination
49° 27' 35"
Sunlit
Object was in daylight at epoch
Visualization orbit readout
Latitude
Unknown
Longitude
Unknown
Altitude
Unknown
Speed
Unknown
Apparent Right ascension
Unknown
Apparent Declination
Unknown
Sunlit
N/A
Visualization observer readout
Local Sidereal Time
06:42:10
Azimuth
Unknown
Elevation
Unknown
Doppler factor
Unknown
Orbital elements
Apogee altitude
952.221 km
Perigee altitude
806.091 km
Semi-major axis
7,257.293 km
Eccentricity
0.01007
Inclination
98.7477°
RAAN
72.5659°
Arg. of periapsis
245.4196°
True anomaly
244.25622°
Mean anomaly
245.2988°
Eccentric anomaly
244.77696°
Mean motion
3.5106 °/min
Orbital period
102.55 mins
BSTAR
0.00056975
Loading maneuver chart data...
Computing Atmospheric mass density...
Loading historical data...
Loading historical data...
Loading historical data...
Loading historical data...
Loading historical data...
Loading historical data...
Loading historical data...

Documentation

Showing up to 5 results
|